Back to catalog

BREEZE-M DEB

AliveHEO
NORAD 38579·DEBRIS·🇷🇺 Russia

Launched Mar 14, 2008 from Baikonur Cosmodrome

Loading…

Next Passes (next 24 hours)

TLE

FreshSource: Space-Track

Epoch: Sep 14, 2026, 02:28 UTC

1 38579U 08011AA  26257.10304344 -.00000069  00000-0  00000-0 0  9999
2 38579  48.8932  55.7996 6293251 196.1694 127.2926  2.99344350167937

Track BREEZE-M DEB in real time with AllMySat

Download on the App Store